Location: ????????
(55.0097°N, 38.5678°E)
Time: 01:08:56
(UTC+00:00)

NOSS 3-1 (C) - Pass Details

Date: 21 December 2025
Orbit: 618 x 1583 km, 63.4° (Epoch: 10 January)

Event Time Altitude Azimuth Distance (km) Brightness Sun altitude
Rises 14:50:38 0° 183° (S) 2,955 6.4 -14.5°
Reaches altitude 10° 14:53:08 10° 169° (SSE) 2,119 5.4 -14.8°
Maximum altitude 14:56:56 24° 115° (ESE) 1,516 4.1 -15.3°
Enters shadow 14:58:13 22° 93° (E) 1,653 4.2 -15.5°
